This is the latest recevied weather packets stored in our database for station/object K5SVV. If no packets are shown the sender has not sent any weather packets the latest 10 day(s).
| Time | Temp. | Humidity | Pressure | Rain* | Wind** | Luminosity | Snow |
|---|---|---|---|---|---|---|---|
| 1788293853 | 35.56° C | 46% | 1013.7 hPa | 0 mm | - | 208 W/m² | - |
| 1788293552 | 35.56° C | 46% | 1014.1 hPa | 0 mm | - | 210 W/m² | - |
| 1788293247 | 35.56° C | 47% | 1014.1 hPa | 0 mm | - | 165 W/m² | - |
| 1788292942 | 36.11° C | 45% | 1013.9 hPa | 0 mm | - | 151 W/m² | - |
| 1788292639 | 35.56° C | 46% | 1014.1 hPa | 0 mm | - | 753 W/m² | - |
| 1788292334 | 35.56° C | 45% | 1013.9 hPa | 0 mm | - | 185 W/m² | - |
| 1788292030 | 35.56° C | 44% | 1014.2 hPa | 0 mm | - | 203 W/m² | - |
| 1788291724 | 36.11° C | 45% | 1014.2 hPa | 0 mm | - | 147 W/m² | - |
| 1788291421 | 36.67° C | 44% | 1014 hPa | 0 mm | - | 763 W/m² | - |
| 1788291114 | 36.67° C | 44% | 1014.1 hPa | 0 mm | - | 707 W/m² | - |
| 1788290809 | 36.67° C | 43% | 1014 hPa | 0 mm | - | 822 W/m² | - |
| 1788290504 | 35.56° C | 46% | 1014.6 hPa | 0 mm | - | 820 W/m² | - |
| 1788290200 | 36.11° C | 45% | 1014.6 hPa | 0 mm | - | 138 W/m² | - |
| 1788289896 | 36.67° C | 45% | 1014.7 hPa | 0 mm | - | 674 W/m² | - |
| 1788289592 | 36.67° C | 43% | 1014.9 hPa | 0 mm | - | 810 W/m² | - |
| 1788289291 | 36.11° C | 45% | 1014.7 hPa | 0 mm | - | 780 W/m² | - |
| 1788288990 | 36.67° C | 44% | 1014.9 hPa | 0 mm | - | 814 W/m² | - |
| 1788288688 | 36.67° C | 44% | 1015 hPa | 0 mm | - | 809 W/m² | - |
| 1788288384 | 36.67° C | 45% | 1015 hPa | 0 mm | - | 808 W/m² | - |
| 1788288080 | 36.67° C | 43% | 1015.1 hPa | 0 mm | - | 823 W/m² | - |
| 1788287775 | 36.67° C | 43% | 1015.1 hPa | 0 mm | - | 820 W/m² | - |
| 1788287470 | 35.56° C | 46% | 1015.1 hPa | 0 mm | - | 790 W/m² | - |
| 1788287166 | 35.56° C | 47% | 1015.5 hPa | 0 mm | - | 440 W/m² | - |
| 1788286865 | 36.11° C | 45% | 1015.5 hPa | 0 mm | - | 176 W/m² | - |
| 1788286559 | 35° C | 46% | 1015.4 hPa | 0 mm | - | 847 W/m² | - |
* Rain latest hour (hover to see other rain measurements)
** Current wind speed in m/s (hover to see current wind gust speed)